Year,Month,Day,Hour,Minute,Value (Times are PST for temperature in C)
2017,06,09,00,00,10.30
2017,06,09,00,01,10.30
2017,06,09,00,02,10.30
2017,06,09,00,03,10.30
2017,06,09,00,04,10.30
2017,06,09,00,05,10.30
2017,06,09,00,06,10.20
2017,06,09,00,07,10.20
2017,06,09,00,08,10.20
2017,06,09,00,09,10.10
2017,06,09,00,10,10.10
2017,06,09,00,11,10.10
2017,06,09,00,12,10.10
2017,06,09,00,13,10.10
2017,06,09,00,14,10.00
2017,06,09,00,15,10.00
2017,06,09,00,16,10.00
2017,06,09,00,17,10.00
2017,06,09,00,18,10.00
2017,06,09,00,19,9.90
2017,06,09,00,20,9.90
2017,06,09,00,21,9.90
2017,06,09,00,22,9.90
2017,06,09,00,23,9.90
2017,06,09,00,24,9.90
2017,06,09,00,25,9.90
2017,06,09,00,26,9.90
2017,06,09,00,27,9.90
2017,06,09,00,28,9.80
2017,06,09,00,29,9.80
2017,06,09,00,30,9.80
2017,06,09,00,31,9.80
2017,06,09,00,32,9.80
2017,06,09,00,33,9.80
2017,06,09,00,34,9.80
2017,06,09,00,35,9.80
2017,06,09,00,36,9.80
2017,06,09,00,37,9.80
2017,06,09,00,38,9.80
2017,06,09,00,39,9.80
2017,06,09,00,40,9.80
2017,06,09,00,41,9.70
2017,06,09,00,42,9.70
2017,06,09,00,43,9.70
2017,06,09,00,44,9.70
2017,06,09,00,45,9.70
2017,06,09,00,46,9.70
2017,06,09,00,47,9.70
2017,06,09,00,48,9.60
2017,06,09,00,49,9.60
2017,06,09,00,50,9.60
2017,06,09,00,51,9.60
2017,06,09,00,52,9.60
2017,06,09,00,53,9.60
2017,06,09,00,54,9.60
2017,06,09,00,55,9.60
2017,06,09,00,56,9.60
2017,06,09,00,57,9.60
2017,06,09,00,58,9.60
2017,06,09,00,59,9.60
2017,06,09,01,00,9.70
2017,06,09,01,01,9.70
2017,06,09,01,02,9.70
2017,06,09,01,03,9.70
2017,06,09,01,04,9.70
2017,06,09,01,05,9.80
2017,06,09,01,06,9.80
2017,06,09,01,07,9.80
2017,06,09,01,08,9.80
2017,06,09,01,09,9.80
2017,06,09,01,10,9.80
2017,06,09,01,11,9.80
2017,06,09,01,12,9.80
2017,06,09,01,13,9.80
2017,06,09,01,14,9.80
2017,06,09,01,15,9.80
2017,06,09,01,16,9.80
2017,06,09,01,17,9.80
2017,06,09,01,18,9.80
2017,06,09,01,19,9.80
2017,06,09,01,20,9.80
2017,06,09,01,21,9.80
2017,06,09,01,22,9.80
2017,06,09,01,23,9.80
2017,06,09,01,24,9.70
2017,06,09,01,25,9.70
2017,06,09,01,26,9.70
2017,06,09,01,27,9.70
2017,06,09,01,28,9.70
2017,06,09,01,29,9.70
2017,06,09,01,30,9.80
2017,06,09,01,31,9.80
2017,06,09,01,32,9.80
2017,06,09,01,33,9.80
2017,06,09,01,34,9.80
2017,06,09,01,35,9.80
2017,06,09,01,36,9.80
2017,06,09,01,37,9.80
2017,06,09,01,38,9.80
2017,06,09,01,39,9.80
2017,06,09,01,40,9.80
2017,06,09,01,41,9.80
2017,06,09,01,42,9.80
2017,06,09,01,43,9.80
2017,06,09,01,44,9.80
2017,06,09,01,45,9.80
2017,06,09,01,46,9.80
2017,06,09,01,47,9.80
2017,06,09,01,48,9.80
2017,06,09,01,49,9.80
2017,06,09,01,50,9.70
2017,06,09,01,51,9.70
2017,06,09,01,52,9.70
2017,06,09,01,53,9.70
2017,06,09,01,54,9.70
2017,06,09,01,55,9.70
2017,06,09,01,56,9.70
2017,06,09,01,57,9.60
2017,06,09,01,58,9.60
2017,06,09,01,59,9.60
2017,06,09,02,00,9.60
2017,06,09,02,01,9.60
2017,06,09,02,02,9.50
2017,06,09,02,03,9.50
2017,06,09,02,04,9.50
2017,06,09,02,05,9.40
2017,06,09,02,06,9.40
2017,06,09,02,07,9.40
2017,06,09,02,08,9.30
2017,06,09,02,09,9.30
2017,06,09,02,10,9.30
2017,06,09,02,11,9.30
2017,06,09,02,12,9.30
2017,06,09,02,13,9.30
2017,06,09,02,14,9.30
2017,06,09,02,15,9.30
2017,06,09,02,16,9.30
2017,06,09,02,17,9.20
2017,06,09,02,18,9.20
2017,06,09,02,19,9.20
2017,06,09,02,20,9.20
2017,06,09,02,21,9.20
2017,06,09,02,22,9.20
2017,06,09,02,23,9.20
2017,06,09,02,24,9.20
2017,06,09,02,25,9.20
2017,06,09,02,26,9.20
2017,06,09,02,27,9.20
2017,06,09,02,28,9.10
2017,06,09,02,29,9.10
2017,06,09,02,30,9.00
2017,06,09,02,31,8.90
2017,06,09,02,32,8.90
2017,06,09,02,33,8.80
2017,06,09,02,34,8.80
2017,06,09,02,35,8.70
2017,06,09,02,36,8.70
2017,06,09,02,37,8.70
2017,06,09,02,38,8.70
2017,06,09,02,39,8.60
2017,06,09,02,40,8.60
2017,06,09,02,41,8.60
2017,06,09,02,42,8.60
2017,06,09,02,43,8.60
2017,06,09,02,44,8.60
2017,06,09,02,45,8.60
2017,06,09,02,46,8.60
2017,06,09,02,47,8.60
2017,06,09,02,48,8.60
2017,06,09,02,49,8.60
2017,06,09,02,50,8.60
2017,06,09,02,51,8.60
2017,06,09,02,52,8.60
2017,06,09,02,53,8.60
2017,06,09,02,54,8.60
2017,06,09,02,55,8.60
2017,06,09,02,56,8.60
2017,06,09,02,57,8.70
2017,06,09,02,58,8.70
2017,06,09,02,59,8.70
2017,06,09,03,00,8.70
2017,06,09,03,01,8.80
2017,06,09,03,02,8.80
2017,06,09,03,03,8.80
2017,06,09,03,04,8.80
2017,06,09,03,05,8.80
2017,06,09,03,06,8.90
2017,06,09,03,07,8.90
2017,06,09,03,08,8.90
2017,06,09,03,09,8.90
2017,06,09,03,10,8.90
2017,06,09,03,11,8.90
2017,06,09,03,12,9.00
2017,06,09,03,13,9.00
2017,06,09,03,14,9.00
2017,06,09,03,15,9.00
2017,06,09,03,16,9.00
2017,06,09,03,17,9.00
2017,06,09,03,18,9.00
2017,06,09,03,19,9.00
2017,06,09,03,20,9.00
2017,06,09,03,21,8.90
2017,06,09,03,22,8.90
2017,06,09,03,23,8.90
2017,06,09,03,24,8.90
2017,06,09,03,25,8.90
2017,06,09,03,26,8.90
2017,06,09,03,27,8.90
2017,06,09,03,28,8.90
2017,06,09,03,29,8.90
2017,06,09,03,30,8.90
2017,06,09,03,31,8.90
2017,06,09,03,32,8.90
2017,06,09,03,33,8.90
2017,06,09,03,34,8.90
2017,06,09,03,35,8.90
2017,06,09,03,36,8.90
2017,06,09,03,37,8.80
2017,06,09,03,38,8.80
2017,06,09,03,39,8.80
2017,06,09,03,40,8.80
2017,06,09,03,41,8.80
2017,06,09,03,42,8.80
2017,06,09,03,43,8.80
2017,06,09,03,44,8.70
2017,06,09,03,45,8.70
2017,06,09,03,46,8.70
2017,06,09,03,47,8.70
2017,06,09,03,48,8.70
2017,06,09,03,49,8.80
2017,06,09,03,50,8.80
2017,06,09,03,51,8.80
2017,06,09,03,52,8.80
2017,06,09,03,53,8.80
2017,06,09,03,54,8.90
2017,06,09,03,55,8.90
2017,06,09,03,56,8.90
2017,06,09,03,57,8.80
2017,06,09,03,58,8.80
2017,06,09,03,59,8.80
2017,06,09,04,00,8.80
2017,06,09,04,01,8.80
2017,06,09,04,02,8.70
2017,06,09,04,03,8.70
2017,06,09,04,04,8.70
2017,06,09,04,05,8.70
2017,06,09,04,06,8.70
2017,06,09,04,07,8.70
2017,06,09,04,08,8.70
2017,06,09,04,09,8.60
2017,06,09,04,10,8.60
2017,06,09,04,11,8.50
2017,06,09,04,12,8.50
2017,06,09,04,13,8.50
2017,06,09,04,14,8.50
2017,06,09,04,15,8.40
2017,06,09,04,16,8.40
2017,06,09,04,17,8.40
2017,06,09,04,18,8.40
2017,06,09,04,19,8.30
2017,06,09,04,20,8.30
2017,06,09,04,21,8.30
2017,06,09,04,22,8.30
2017,06,09,04,23,8.30
2017,06,09,04,24,8.30
2017,06,09,04,25,8.20
2017,06,09,04,26,8.20
2017,06,09,04,27,8.20
2017,06,09,04,28,8.20
2017,06,09,04,29,8.10
2017,06,09,04,30,8.10
2017,06,09,04,31,8.10
2017,06,09,04,32,8.10
2017,06,09,04,33,8.10
2017,06,09,04,34,8.10
2017,06,09,04,35,8.00
2017,06,09,04,36,8.00
2017,06,09,04,37,8.00
2017,06,09,04,38,8.00
2017,06,09,04,39,7.90
2017,06,09,04,40,7.90
2017,06,09,04,41,7.90
2017,06,09,04,42,7.90
2017,06,09,04,43,7.90
2017,06,09,04,44,7.90
2017,06,09,04,45,7.90
2017,06,09,04,46,7.90
2017,06,09,04,47,7.90
2017,06,09,04,48,7.80
2017,06,09,04,49,7.80
2017,06,09,04,50,7.80
2017,06,09,04,51,7.80
2017,06,09,04,52,7.80
2017,06,09,04,53,7.80
2017,06,09,04,54,7.70
2017,06,09,04,55,7.70
2017,06,09,04,56,7.70
2017,06,09,04,57,7.70
2017,06,09,04,58,7.70
2017,06,09,04,59,7.70
2017,06,09,05,00,7.70
2017,06,09,05,01,7.70
2017,06,09,05,02,7.70
2017,06,09,05,03,7.70
2017,06,09,05,04,7.70
2017,06,09,05,05,7.70
2017,06,09,05,06,7.70
2017,06,09,05,07,7.70
2017,06,09,05,08,7.70
2017,06,09,05,09,7.70
2017,06,09,05,10,7.70
2017,06,09,05,11,7.70
2017,06,09,05,12,7.70
2017,06,09,05,13,7.70
2017,06,09,05,14,7.70
2017,06,09,05,15,7.80
2017,06,09,05,16,7.80
2017,06,09,05,17,7.90
2017,06,09,05,18,7.90
2017,06,09,05,19,7.90
2017,06,09,05,20,7.90
2017,06,09,05,21,7.90
2017,06,09,05,22,7.90
2017,06,09,05,23,7.90
2017,06,09,05,24,7.90
2017,06,09,05,25,7.90
2017,06,09,05,26,7.90
2017,06,09,05,27,7.80
2017,06,09,05,28,7.80
2017,06,09,05,29,7.80
2017,06,09,05,30,7.70
2017,06,09,05,31,7.70
2017,06,09,05,32,7.70
2017,06,09,05,33,7.70
2017,06,09,05,34,7.70
2017,06,09,05,35,7.70
2017,06,09,05,36,7.70
2017,06,09,05,37,7.80
2017,06,09,05,38,7.80
2017,06,09,05,39,7.80
2017,06,09,05,40,7.80
2017,06,09,05,41,7.80
2017,06,09,05,42,7.80
2017,06,09,05,43,7.70
2017,06,09,05,44,7.70
2017,06,09,05,45,7.70
2017,06,09,05,46,7.70
2017,06,09,05,47,7.70
2017,06,09,05,48,7.70
2017,06,09,05,49,7.70
2017,06,09,05,50,7.70
2017,06,09,05,51,7.70
2017,06,09,05,52,7.70
2017,06,09,05,53,7.80
2017,06,09,05,54,7.80
2017,06,09,05,55,7.80
2017,06,09,05,56,7.80
2017,06,09,05,57,7.90
2017,06,09,05,58,7.90
2017,06,09,05,59,7.90
2017,06,09,06,00,7.90
2017,06,09,06,01,7.90
2017,06,09,06,02,7.90
2017,06,09,06,03,8.00
2017,06,09,06,04,8.00
2017,06,09,06,05,8.00
2017,06,09,06,06,8.10
2017,06,09,06,07,8.10
2017,06,09,06,08,8.10
2017,06,09,06,09,8.20
2017,06,09,06,10,8.20
2017,06,09,06,11,8.20
2017,06,09,06,12,8.30
2017,06,09,06,13,8.30
2017,06,09,06,14,8.30
2017,06,09,06,15,8.40
2017,06,09,06,16,8.40
2017,06,09,06,17,8.40
2017,06,09,06,18,8.50
2017,06,09,06,19,8.50
2017,06,09,06,20,8.50
2017,06,09,06,21,8.60
2017,06,09,06,22,8.60
2017,06,09,06,23,8.60
2017,06,09,06,24,8.60
2017,06,09,06,25,8.60
2017,06,09,06,26,8.60
2017,06,09,06,27,8.60
2017,06,09,06,28,8.60
2017,06,09,06,29,8.70
2017,06,09,06,30,8.70
2017,06,09,06,31,8.70
2017,06,09,06,32,8.70
2017,06,09,06,33,8.70
2017,06,09,06,34,8.70
2017,06,09,06,35,8.70
2017,06,09,06,36,8.80
2017,06,09,06,37,8.80
2017,06,09,06,38,8.80
2017,06,09,06,39,8.80
2017,06,09,06,40,8.80
2017,06,09,06,41,8.80
2017,06,09,06,42,8.90
2017,06,09,06,43,8.90
2017,06,09,06,44,8.90
2017,06,09,06,45,8.90
2017,06,09,06,46,8.90
2017,06,09,06,47,8.80
2017,06,09,06,48,8.80
2017,06,09,06,49,8.70
2017,06,09,06,50,8.70
2017,06,09,06,51,8.70
2017,06,09,06,52,8.60
2017,06,09,06,53,8.60
2017,06,09,06,54,8.60
2017,06,09,06,55,8.60
2017,06,09,06,56,8.50
2017,06,09,06,57,8.50
2017,06,09,06,58,8.50
2017,06,09,06,59,8.50
2017,06,09,07,00,8.60
2017,06,09,07,01,8.60
2017,06,09,07,02,8.60
2017,06,09,07,03,8.70
2017,06,09,07,04,8.70
2017,06,09,07,05,8.70
2017,06,09,07,06,8.80
2017,06,09,07,07,8.80
2017,06,09,07,08,8.90
2017,06,09,07,09,8.90
2017,06,09,07,10,8.90
2017,06,09,07,11,9.00
2017,06,09,07,12,9.00
2017,06,09,07,13,9.00
2017,06,09,07,14,9.10
2017,06,09,07,15,9.10
2017,06,09,07,16,9.10
2017,06,09,07,17,9.10
2017,06,09,07,18,9.10
2017,06,09,07,19,9.20
2017,06,09,07,20,9.20
2017,06,09,07,21,9.20
2017,06,09,07,22,9.20
2017,06,09,07,23,9.20
2017,06,09,07,24,9.20
2017,06,09,07,25,9.10
2017,06,09,07,26,9.10
2017,06,09,07,27,9.10
2017,06,09,07,28,9.10
2017,06,09,07,29,9.10
2017,06,09,07,30,9.10
2017,06,09,07,31,9.20
2017,06,09,07,32,9.20
2017,06,09,07,33,9.20
2017,06,09,07,34,9.30
2017,06,09,07,35,9.30
2017,06,09,07,36,9.30
2017,06,09,07,37,9.30
2017,06,09,07,38,9.40
2017,06,09,07,39,9.40
2017,06,09,07,40,9.40
2017,06,09,07,41,9.40
2017,06,09,07,42,9.50
2017,06,09,07,43,9.50
2017,06,09,07,44,9.60
2017,06,09,07,45,9.60
2017,06,09,07,46,9.60
2017,06,09,07,47,9.60
2017,06,09,07,48,9.60
2017,06,09,07,49,9.60
2017,06,09,07,50,9.60
2017,06,09,07,51,9.60
2017,06,09,07,52,9.60
2017,06,09,07,53,9.60
2017,06,09,07,54,9.60
2017,06,09,07,55,9.60
2017,06,09,07,56,9.60
2017,06,09,07,57,9.60
2017,06,09,07,58,9.60
2017,06,09,07,59,9.60
2017,06,09,08,00,9.60
2017,06,09,08,01,9.60
2017,06,09,08,02,9.60
2017,06,09,08,03,9.70
2017,06,09,08,04,9.70
2017,06,09,08,05,9.70
2017,06,09,08,06,9.70
2017,06,09,08,07,9.80
2017,06,09,08,08,9.80
2017,06,09,08,09,9.80
2017,06,09,08,10,9.80
2017,06,09,08,11,9.90
2017,06,09,08,12,9.90
2017,06,09,08,13,9.90
2017,06,09,08,14,9.90
2017,06,09,08,15,9.90
2017,06,09,08,16,10.00
2017,06,09,08,17,10.00
2017,06,09,08,18,10.10
2017,06,09,08,19,10.10
2017,06,09,08,20,10.10
2017,06,09,08,21,10.10
2017,06,09,08,22,10.20
2017,06,09,08,23,10.20
2017,06,09,08,24,10.20
2017,06,09,08,25,10.20
2017,06,09,08,26,10.20
2017,06,09,08,27,10.20
2017,06,09,08,28,10.20
2017,06,09,08,29,10.20
2017,06,09,08,30,10.30
2017,06,09,08,31,10.30
2017,06,09,08,32,10.30
2017,06,09,08,33,10.40
2017,06,09,08,34,10.40
2017,06,09,08,35,10.40
2017,06,09,08,36,10.40
2017,06,09,08,37,10.40
2017,06,09,08,38,10.40
2017,06,09,08,39,10.50
2017,06,09,08,40,10.50
2017,06,09,08,41,10.60
2017,06,09,08,42,10.60
2017,06,09,08,43,10.60
2017,06,09,08,44,10.60
2017,06,09,08,45,10.60
2017,06,09,08,46,10.60
2017,06,09,08,47,10.60
2017,06,09,08,48,10.70
2017,06,09,08,49,10.70
2017,06,09,08,50,10.70
2017,06,09,08,51,10.70
2017,06,09,08,52,10.80
2017,06,09,08,53,10.80
2017,06,09,08,54,10.80
2017,06,09,08,55,10.80
2017,06,09,08,56,10.80
2017,06,09,08,57,10.80
2017,06,09,08,58,10.90
2017,06,09,08,59,10.90
2017,06,09,09,00,11.00
2017,06,09,09,01,11.00
2017,06,09,09,02,11.10
2017,06,09,09,03,11.10
2017,06,09,09,04,11.10
2017,06,09,09,05,11.10
2017,06,09,09,06,11.10
2017,06,09,09,07,11.20
2017,06,09,09,08,11.20
2017,06,09,09,09,11.20
2017,06,09,09,10,11.20
2017,06,09,09,11,11.30
2017,06,09,09,12,11.30
2017,06,09,09,13,11.30
2017,06,09,09,14,11.30
2017,06,09,09,15,11.30
2017,06,09,09,16,11.30
2017,06,09,09,17,11.40
2017,06,09,09,18,11.40
2017,06,09,09,19,11.40
2017,06,09,09,20,11.40
2017,06,09,09,21,11.50
2017,06,09,09,22,11.50
2017,06,09,09,23,11.60
2017,06,09,09,24,11.60
2017,06,09,09,25,11.60
2017,06,09,09,26,11.60
2017,06,09,09,27,11.70
2017,06,09,09,28,11.70
2017,06,09,09,29,11.70
2017,06,09,09,30,11.80
2017,06,09,09,31,11.80
2017,06,09,09,32,11.80
2017,06,09,09,33,11.80
2017,06,09,09,34,11.80
2017,06,09,09,35,11.80
2017,06,09,09,36,11.90
2017,06,09,09,37,11.90
2017,06,09,09,38,11.90
2017,06,09,09,39,11.90
2017,06,09,09,40,11.90
2017,06,09,09,41,11.90
2017,06,09,09,42,11.90
2017,06,09,09,43,11.90
2017,06,09,09,44,11.90
2017,06,09,09,45,11.90
2017,06,09,09,46,12.00
2017,06,09,09,47,12.00
2017,06,09,09,48,12.00
2017,06,09,09,49,12.00
2017,06,09,09,50,12.00
2017,06,09,09,51,12.00
2017,06,09,09,52,12.00
2017,06,09,09,53,12.00
2017,06,09,09,54,12.10
2017,06,09,09,55,12.10
2017,06,09,09,56,12.10
2017,06,09,09,57,12.10
2017,06,09,09,58,12.10
2017,06,09,09,59,12.10
2017,06,09,10,00,12.10
2017,06,09,10,01,12.10
2017,06,09,10,02,12.20
2017,06,09,10,03,12.20
2017,06,09,10,04,12.20
2017,06,09,10,05,12.20
2017,06,09,10,06,12.20
2017,06,09,10,07,12.30
2017,06,09,10,08,12.40
2017,06,09,10,09,12.40
2017,06,09,10,10,12.50
2017,06,09,10,11,12.60
2017,06,09,10,12,12.60
2017,06,09,10,13,12.70
2017,06,09,10,14,12.70
2017,06,09,10,15,12.80
2017,06,09,10,16,12.80
2017,06,09,10,17,12.80
2017,06,09,10,18,12.80
2017,06,09,10,19,12.80
2017,06,09,10,20,12.70
2017,06,09,10,21,12.70
2017,06,09,10,22,12.70
2017,06,09,10,23,12.60
2017,06,09,10,24,12.60
2017,06,09,10,25,12.60
2017,06,09,10,26,12.60
2017,06,09,10,27,12.60
2017,06,09,10,28,12.60
2017,06,09,10,29,12.70
2017,06,09,10,30,12.70
2017,06,09,10,31,12.70
2017,06,09,10,32,12.70
2017,06,09,10,33,12.70
2017,06,09,10,34,12.70
2017,06,09,10,35,12.80
2017,06,09,10,36,12.80
2017,06,09,10,37,12.80
2017,06,09,10,38,12.80
2017,06,09,10,39,12.70
2017,06,09,10,40,12.70
2017,06,09,10,41,12.70
2017,06,09,10,42,12.70
2017,06,09,10,43,12.70
2017,06,09,10,44,12.70
2017,06,09,10,45,12.70
2017,06,09,10,46,12.80
2017,06,09,10,47,12.80
2017,06,09,10,48,12.80
2017,06,09,10,49,12.80
2017,06,09,10,50,12.90
2017,06,09,10,51,12.90
2017,06,09,10,52,12.90
2017,06,09,10,53,12.90
2017,06,09,10,54,12.90
2017,06,09,10,55,12.90
2017,06,09,10,56,12.90
2017,06,09,10,57,12.90
2017,06,09,10,58,12.90
2017,06,09,10,59,12.90
2017,06,09,11,00,12.90
2017,06,09,11,01,12.90
2017,06,09,11,02,12.90
2017,06,09,11,03,12.90
2017,06,09,11,04,12.90
2017,06,09,11,05,12.90
2017,06,09,11,06,12.90
2017,06,09,11,07,12.90
2017,06,09,11,08,12.90
2017,06,09,11,09,12.90
2017,06,09,11,10,12.90
2017,06,09,11,11,12.90
2017,06,09,11,12,13.00
2017,06,09,11,13,13.00
2017,06,09,11,14,13.10
2017,06,09,11,15,13.10
2017,06,09,11,16,13.20
2017,06,09,11,17,13.20
2017,06,09,11,18,13.20
2017,06,09,11,19,13.30
2017,06,09,11,20,13.30
2017,06,09,11,21,13.30
2017,06,09,11,22,13.30
2017,06,09,11,23,13.30
2017,06,09,11,24,13.30
2017,06,09,11,25,13.30
2017,06,09,11,26,13.30
2017,06,09,11,27,13.40
2017,06,09,11,28,13.40
2017,06,09,11,29,13.50
2017,06,09,11,30,13.50
2017,06,09,11,31,13.60
2017,06,09,11,32,13.70
2017,06,09,11,33,13.70
2017,06,09,11,34,13.70
2017,06,09,11,35,13.70
2017,06,09,11,36,13.70
2017,06,09,11,37,13.70
2017,06,09,11,38,13.70
2017,06,09,11,39,13.70
2017,06,09,11,40,13.70
2017,06,09,11,41,13.80
2017,06,09,11,42,13.80
2017,06,09,11,43,13.80
2017,06,09,11,44,13.80
2017,06,09,11,45,13.80
2017,06,09,11,46,13.70
2017,06,09,11,47,13.70
2017,06,09,11,48,13.70
2017,06,09,11,49,13.70
2017,06,09,11,50,13.70
2017,06,09,11,51,13.70
2017,06,09,11,52,13.70
2017,06,09,11,53,13.70
2017,06,09,11,54,13.70
2017,06,09,11,55,13.70
2017,06,09,11,56,13.70
2017,06,09,11,57,13.70
2017,06,09,11,58,13.60
2017,06,09,11,59,13.50
2017,06,09,12,00,13.40
2017,06,09,12,01,13.40
2017,06,09,12,02,13.30
2017,06,09,12,03,13.30
2017,06,09,12,04,13.30
2017,06,09,12,05,13.30
2017,06,09,12,06,13.30
2017,06,09,12,07,13.30
2017,06,09,12,08,13.30
2017,06,09,12,09,13.30
2017,06,09,12,10,13.30
2017,06,09,12,11,13.40
2017,06,09,12,12,13.40
2017,06,09,12,13,13.40
2017,06,09,12,14,13.50
2017,06,09,12,15,13.60
2017,06,09,12,16,13.60
2017,06,09,12,17,13.60
2017,06,09,12,18,13.60
2017,06,09,12,19,13.50
2017,06,09,12,20,13.50
2017,06,09,12,21,13.40
2017,06,09,12,22,13.40
2017,06,09,12,23,13.30
2017,06,09,12,24,13.30
2017,06,09,12,25,13.30
2017,06,09,12,26,13.30
2017,06,09,12,27,13.30
2017,06,09,12,28,13.30
2017,06,09,12,29,13.30
2017,06,09,12,30,13.40
2017,06,09,12,31,13.40
2017,06,09,12,32,13.40
2017,06,09,12,33,13.40
2017,06,09,12,34,13.50
2017,06,09,12,35,13.50
2017,06,09,12,36,13.40
2017,06,09,12,37,13.30
2017,06,09,12,38,13.30
2017,06,09,12,39,13.30
2017,06,09,12,40,13.40
2017,06,09,12,41,13.40
2017,06,09,12,42,13.50
2017,06,09,12,43,13.60
2017,06,09,12,44,13.60
2017,06,09,12,45,13.60
2017,06,09,12,46,13.60
2017,06,09,12,47,13.60
2017,06,09,12,48,13.60
2017,06,09,12,49,13.60
2017,06,09,12,50,13.60
2017,06,09,12,51,13.70
2017,06,09,12,52,13.70
2017,06,09,12,53,13.80
2017,06,09,12,54,13.90
2017,06,09,12,55,13.90
2017,06,09,12,56,13.90
2017,06,09,12,57,13.90
2017,06,09,12,58,13.90
2017,06,09,12,59,13.80
2017,06,09,13,00,13.80
2017,06,09,13,01,13.70
2017,06,09,13,02,13.70
2017,06,09,13,03,13.80
2017,06,09,13,04,13.80
2017,06,09,13,05,13.80
2017,06,09,13,06,13.90
2017,06,09,13,07,13.90
2017,06,09,13,08,13.90
2017,06,09,13,09,14.00
2017,06,09,13,10,14.10
2017,06,09,13,11,14.10
2017,06,09,13,12,14.10
2017,06,09,13,13,14.20
2017,06,09,13,14,14.10
2017,06,09,13,15,14.10
2017,06,09,13,16,14.10
2017,06,09,13,17,14.00
2017,06,09,13,18,14.00
2017,06,09,13,19,13.90
2017,06,09,13,20,14.00
2017,06,09,13,21,14.00
2017,06,09,13,22,14.00
2017,06,09,13,23,14.00
2017,06,09,13,24,14.00
2017,06,09,13,25,13.90
2017,06,09,13,26,13.90
2017,06,09,13,27,13.90
2017,06,09,13,28,14.00
2017,06,09,13,29,14.00
2017,06,09,13,30,14.00
2017,06,09,13,31,14.10
2017,06,09,13,32,14.10
2017,06,09,13,33,14.20
2017,06,09,13,34,14.20
2017,06,09,13,35,14.30
2017,06,09,13,36,14.20
2017,06,09,13,37,14.20
2017,06,09,13,38,14.20
2017,06,09,13,39,14.30
2017,06,09,13,40,14.30
2017,06,09,13,41,14.40
2017,06,09,13,42,14.40
2017,06,09,13,43,14.40
2017,06,09,13,44,14.40
2017,06,09,13,45,14.50
2017,06,09,13,46,14.60
2017,06,09,13,47,14.60
2017,06,09,13,48,14.60
2017,06,09,13,49,14.60
2017,06,09,13,50,14.60
2017,06,09,13,51,14.60
2017,06,09,13,52,14.60
2017,06,09,13,53,14.60
2017,06,09,13,54,14.60
2017,06,09,13,55,14.70
2017,06,09,13,56,14.70
2017,06,09,13,57,14.70
2017,06,09,13,58,14.70
2017,06,09,13,59,14.70
2017,06,09,14,00,14.70
2017,06,09,14,01,14.70
2017,06,09,14,02,14.70
2017,06,09,14,03,14.70
2017,06,09,14,04,14.70
2017,06,09,14,05,14.70
2017,06,09,14,06,14.70
2017,06,09,14,07,14.70
2017,06,09,14,08,14.80
2017,06,09,14,09,14.80
2017,06,09,14,10,14.90
2017,06,09,14,11,14.90
2017,06,09,14,12,14.90
2017,06,09,14,13,15.00
2017,06,09,14,14,15.00
2017,06,09,14,15,14.90
2017,06,09,14,16,14.90
2017,06,09,14,17,15.00
2017,06,09,14,18,14.90
2017,06,09,14,19,14.90
2017,06,09,14,20,14.90
2017,06,09,14,21,14.90
2017,06,09,14,22,14.90
2017,06,09,14,23,14.80
2017,06,09,14,24,14.80
2017,06,09,14,25,14.80
2017,06,09,14,26,14.80
2017,06,09,14,27,14.80
2017,06,09,14,28,14.80
2017,06,09,14,29,14.90
2017,06,09,14,30,14.90
2017,06,09,14,31,15.00
2017,06,09,14,32,15.10
2017,06,09,14,33,15.10
2017,06,09,14,34,15.10
2017,06,09,14,35,15.10
2017,06,09,14,36,15.20
2017,06,09,14,37,15.20
2017,06,09,14,38,15.30
2017,06,09,14,39,15.30
2017,06,09,14,40,15.30
2017,06,09,14,41,15.30
2017,06,09,14,42,15.30
2017,06,09,14,43,15.30
2017,06,09,14,44,15.40
2017,06,09,14,45,15.40
2017,06,09,14,46,15.50
2017,06,09,14,47,15.50
2017,06,09,14,48,15.50
2017,06,09,14,49,15.50
2017,06,09,14,50,15.30
2017,06,09,14,51,15.20
2017,06,09,14,52,15.10
2017,06,09,14,53,15.10
2017,06,09,14,54,15.10
2017,06,09,14,55,15.20
2017,06,09,14,56,15.20
2017,06,09,14,57,15.20
2017,06,09,14,58,15.20
2017,06,09,14,59,15.20
2017,06,09,15,00,15.20
2017,06,09,15,01,15.30
2017,06,09,15,02,15.30
2017,06,09,15,03,15.30
2017,06,09,15,04,15.40
2017,06,09,15,05,15.50
2017,06,09,15,06,15.50
2017,06,09,15,07,15.60
2017,06,09,15,08,15.60
2017,06,09,15,09,15.60
2017,06,09,15,10,15.70
2017,06,09,15,11,15.70
2017,06,09,15,12,15.70
2017,06,09,15,13,15.70
2017,06,09,15,14,15.70
2017,06,09,15,15,15.70
2017,06,09,15,16,15.80
2017,06,09,15,17,15.70
2017,06,09,15,18,15.70
2017,06,09,15,19,15.70
2017,06,09,15,20,15.70
2017,06,09,15,21,15.60
2017,06,09,15,22,15.50
2017,06,09,15,23,15.50
2017,06,09,15,24,15.40
2017,06,09,15,25,15.40
2017,06,09,15,26,15.40
2017,06,09,15,27,15.40
2017,06,09,15,28,15.40
2017,06,09,15,29,15.50
2017,06,09,15,30,15.50
2017,06,09,15,31,15.60
2017,06,09,15,32,15.60
2017,06,09,15,33,15.60
2017,06,09,15,34,15.60
2017,06,09,15,35,15.60
2017,06,09,15,36,15.60
2017,06,09,15,37,15.70
2017,06,09,15,38,15.70
2017,06,09,15,39,15.80
2017,06,09,15,40,15.70
2017,06,09,15,41,15.80
2017,06,09,15,42,15.80
2017,06,09,15,43,15.80
2017,06,09,15,44,15.80
2017,06,09,15,45,15.80
2017,06,09,15,46,15.80
2017,06,09,15,47,15.80
2017,06,09,15,48,15.80
2017,06,09,15,49,15.80
2017,06,09,15,50,15.80
2017,06,09,15,51,15.70
2017,06,09,15,52,15.70
2017,06,09,15,53,15.60
2017,06,09,15,54,15.60
2017,06,09,15,55,15.60
2017,06,09,15,56,15.60
2017,06,09,15,57,15.60
2017,06,09,15,58,15.60
2017,06,09,15,59,15.60
2017,06,09,16,00,15.60
2017,06,09,16,01,15.60
2017,06,09,16,02,15.60
2017,06,09,16,03,15.50
2017,06,09,16,04,15.50
2017,06,09,16,05,15.40
2017,06,09,16,06,15.30
2017,06,09,16,07,15.30
2017,06,09,16,08,15.30
2017,06,09,16,09,15.30
2017,06,09,16,10,15.40
2017,06,09,16,11,15.40
2017,06,09,16,12,15.40
2017,06,09,16,13,15.40
2017,06,09,16,14,15.40
2017,06,09,16,15,15.40
2017,06,09,16,16,15.40
2017,06,09,16,17,15.40
2017,06,09,16,18,15.40
2017,06,09,16,19,15.40
2017,06,09,16,20,15.40
2017,06,09,16,21,15.40
2017,06,09,16,22,15.40
2017,06,09,16,23,15.40
2017,06,09,16,24,15.50
2017,06,09,16,25,15.50
2017,06,09,16,26,15.40
2017,06,09,16,27,15.40
2017,06,09,16,28,15.40
2017,06,09,16,29,15.40
2017,06,09,16,30,15.40
2017,06,09,16,31,15.40
2017,06,09,16,32,15.50
2017,06,09,16,33,15.60
2017,06,09,16,34,15.50
2017,06,09,16,35,15.50
2017,06,09,16,36,15.50
2017,06,09,16,37,15.60
2017,06,09,16,38,15.60
2017,06,09,16,39,15.60
2017,06,09,16,40,15.60
2017,06,09,16,41,15.60
2017,06,09,16,42,15.60
2017,06,09,16,43,15.60
2017,06,09,16,44,15.60
2017,06,09,16,45,15.60
2017,06,09,16,46,15.60
2017,06,09,16,47,15.70
2017,06,09,16,48,15.70
2017,06,09,16,49,15.80
2017,06,09,16,50,15.80
2017,06,09,16,51,15.80
2017,06,09,16,52,15.90
2017,06,09,16,53,15.90
2017,06,09,16,54,15.90
2017,06,09,16,55,15.90
2017,06,09,16,56,15.90
2017,06,09,16,57,16.00
2017,06,09,16,58,16.00
2017,06,09,16,59,16.00
2017,06,09,17,00,16.00
2017,06,09,17,01,16.10
2017,06,09,17,02,16.10
2017,06,09,17,03,16.20
2017,06,09,17,04,16.10
2017,06,09,17,05,16.00
2017,06,09,17,06,15.90
2017,06,09,17,07,15.80
2017,06,09,17,08,15.70
2017,06,09,17,09,15.70
2017,06,09,17,10,15.70
2017,06,09,17,11,15.70
2017,06,09,17,12,15.70
2017,06,09,17,13,15.80
2017,06,09,17,14,15.80
2017,06,09,17,15,15.90
2017,06,09,17,16,15.90
2017,06,09,17,17,15.90
2017,06,09,17,18,15.90
2017,06,09,17,19,16.00
2017,06,09,17,20,16.00
2017,06,09,17,21,16.10
2017,06,09,17,22,16.10
2017,06,09,17,23,16.20
2017,06,09,17,24,16.20
2017,06,09,17,25,16.20
2017,06,09,17,26,16.20
2017,06,09,17,27,16.30
2017,06,09,17,28,16.30
2017,06,09,17,29,16.20
2017,06,09,17,30,16.20
2017,06,09,17,31,16.10
2017,06,09,17,32,16.00
2017,06,09,17,33,15.90
2017,06,09,17,34,15.80
2017,06,09,17,35,15.80
2017,06,09,17,36,15.80
2017,06,09,17,37,15.80
2017,06,09,17,38,15.80
2017,06,09,17,39,15.90
2017,06,09,17,40,15.90